FIN534 EFHK-ENBR

Flight info

Callsign FIN534
Flight time N/A
Altitude 40000
Route ADIVO Y365 POGOK DCT PESUR
Aircraft A339/H-SADE1E2E3GHIJ3J5M1P2RWXY/LB2D1

Departure

Time 2026-04-24 23:14
Airport Helsinki Vantaa Airport (EFHK)

Arrival

Time N/A
Airport Bergen Airport, Flesland (ENBR)
Time Latitude Longitude Altitude Speed Heading
2026-04-24 22:34 60.31458 24.95617 195 ft 0 kts 137°
2026-04-24 22:58 60.31459 24.95616 195 ft 0 kts 137°
2026-04-24 22:59 60.31461 24.95613 195 ft 2 kts 137°
2026-04-24 23:00 60.31472 24.95593 195 ft 2 kts 137°
2026-04-24 23:00 60.31483 24.95573 194 ft 2 kts 137°
2026-04-24 23:00 60.31490 24.95560 194 ft 2 kts 134°
2026-04-24 23:00 60.31498 24.95535 194 ft 2 kts 110°
2026-04-24 23:01 60.31502 24.95506 194 ft 2 kts 93°
2026-04-24 23:01 60.31501 24.95477 194 ft 2 kts 75°
2026-04-24 23:01 60.31495 24.95449 194 ft 2 kts 56°
2026-04-24 23:01 60.31491 24.95436 194 ft 1 kts 46°
2026-04-24 23:02 60.31488 24.95431 194 ft 0 kts 47°
2026-04-24 23:07 60.31497 24.95450 194 ft 5 kts 47°
2026-04-24 23:07 60.31525 24.95511 193 ft 8 kts 47°
2026-04-24 23:07 60.31572 24.95614 191 ft 11 kts 47°
2026-04-24 23:08 60.31640 24.95710 188 ft 9 kts 28°
2026-04-24 23:08 60.31696 24.95829 187 ft 14 kts 50°
2026-04-24 23:08 60.31766 24.95985 187 ft 15 kts 47°
2026-04-24 23:08 60.31822 24.96105 189 ft 9 kts 44°
2026-04-24 23:09 60.31864 24.96118 191 ft 4 kts 340°
2026-04-24 23:09 60.31898 24.96074 191 ft 6 kts 321°
2026-04-24 23:09 60.31936 24.96007 191 ft 8 kts 319°
2026-04-24 23:09 60.31984 24.95921 192 ft 10 kts 318°
2026-04-24 23:10 60.32038 24.95820 193 ft 10 kts 317°
2026-04-24 23:10 60.32092 24.95720 196 ft 10 kts 317°
2026-04-24 23:10 60.32152 24.95607 200 ft 13 kts 317°
2026-04-24 23:10 60.32231 24.95461 202 ft 17 kts 317°
2026-04-24 23:11 60.32330 24.95291 204 ft 18 kts 330°
2026-04-24 23:11 60.32449 24.95202 204 ft 18 kts 343°
2026-04-24 23:11 60.32571 24.95119 204 ft 18 kts 342°
2026-04-24 23:11 60.32695 24.95040 205 ft 18 kts 342°
2026-04-24 23:12 60.32806 24.94967 209 ft 16 kts 343°
2026-04-24 23:12 60.32904 24.94880 211 ft 15 kts 325°
2026-04-24 23:12 60.32986 24.94735 211 ft 15 kts 317°
2026-04-24 23:12 60.33068 24.94585 212 ft 15 kts 317°
2026-04-24 23:13 60.33119 24.94480 213 ft 7 kts 293°
2026-04-24 23:13 60.33105 24.94376 213 ft 8 kts 232°
2026-04-24 23:13 60.33098 24.94358 213 ft 0 kts 228°
2026-04-24 23:13 60.33065 24.94287 214 ft 31 kts 228°
2026-04-24 23:14 60.32760 24.93608 209 ft 99 kts 227°
2026-04-24 23:14 60.32151 24.92270 193 ft 156 kts 227°
2026-04-24 23:14 60.31372 24.90547 589 ft 171 kts 229°
2026-04-24 23:14 60.30613 24.88818 1399 ft 164 kts 234°
2026-04-24 23:15 60.30083 24.86874 2111 ft 161 kts 257°
2026-04-24 23:15 60.30119 24.84569 2502 ft 177 kts 288°
2026-04-24 23:15 60.30626 24.82195 2874 ft 198 kts 295°
2026-04-24 23:15 60.31244 24.79533 3241 ft 221 kts 294°
2026-04-24 23:16 60.31702 24.76434 3719 ft 241 kts 277°
2026-04-24 23:16 60.31737 24.73084 4514 ft 247 kts 270°
2026-04-24 23:16 60.31656 24.69601 5381 ft 250 kts 269°
2026-04-24 23:16 60.31565 24.66115 6220 ft 253 kts 270°
2026-04-24 23:17 60.31477 24.62573 7000 ft 258 kts 270°
2026-04-24 23:17 60.31373 24.59005 7843 ft 260 kts 270°
2026-04-24 23:17 60.31281 24.55357 8663 ft 262 kts 271°
2026-04-24 23:17 60.31197 24.51755 9552 ft 261 kts 271°
2026-04-24 23:18 60.31110 24.48101 10255 ft 267 kts 271°
2026-04-24 23:18 60.31020 24.44241 10642 ft 285 kts 271°
2026-04-24 23:18 60.30922 24.40169 10988 ft 303 kts 271°
2026-04-24 23:18 60.30810 24.35763 11323 ft 322 kts 271°
2026-04-24 23:19 60.30690 24.31181 11743 ft 336 kts 270°
2026-04-24 23:19 60.30561 24.26459 12477 ft 341 kts 270°
2026-04-24 23:19 60.30428 24.21710 13291 ft 344 kts 270°
2026-04-24 23:19 60.30291 24.16888 14063 ft 347 kts 270°
2026-04-24 23:20 60.30155 24.12059 14828 ft 350 kts 270°
2026-04-24 23:20 60.30016 24.07195 15564 ft 353 kts 270°
2026-04-24 23:20 60.29855 24.02241 16304 ft 357 kts 268°
2026-04-24 23:20 60.29564 23.97317 17030 ft 361 kts 265°
2026-04-24 23:21 60.29118 23.92321 17743 ft 365 kts 262°
2026-04-24 23:21 60.28587 23.87362 18438 ft 368 kts 262°
2026-04-24 23:21 60.28047 23.82345 19139 ft 371 kts 262°
2026-04-24 23:21 60.27496 23.77271 19802 ft 374 kts 262°
2026-04-24 23:22 60.26934 23.72121 20387 ft 378 kts 262°
2026-04-24 23:22 60.26368 23.66933 20969 ft 382 kts 262°
2026-04-24 23:22 60.25795 23.61727 21516 ft 386 kts 262°
2026-04-24 23:22 60.25215 23.56476 22059 ft 389 kts 262°
2026-04-24 23:23 60.24631 23.51202 22576 ft 392 kts 262°
2026-04-24 23:23 60.24032 23.45818 23085 ft 396 kts 262°
2026-04-24 23:23 60.23433 23.40463 23561 ft 399 kts 262°
2026-04-24 23:23 60.22815 23.34959 24032 ft 403 kts 261°
2026-04-24 23:24 60.22201 23.29514 24496 ft 407 kts 261°
2026-04-24 23:24 60.21576 23.23988 24968 ft 410 kts 261°
2026-04-24 23:24 60.20931 23.18361 25452 ft 413 kts 261°
2026-04-24 23:24 60.20290 23.12788 25912 ft 416 kts 259°
2026-04-24 23:25 60.19181 23.07381 26285 ft 430 kts 241°
2026-04-24 23:25 60.17199 23.02850 26740 ft 440 kts 229°
2026-04-24 23:25 60.14959 22.98638 27227 ft 443 kts 228°
2026-04-24 23:25 60.12763 22.94357 27644 ft 444 kts 230°
2026-04-24 23:26 60.10795 22.89610 28022 ft 441 kts 239°
2026-04-24 23:26 60.09235 22.84421 28429 ft 439 kts 246°
2026-04-24 23:26 60.08018 22.78849 28820 ft 438 kts 253°
2026-04-24 23:26 60.07148 22.72969 29191 ft 438 kts 259°
2026-04-24 23:27 60.06422 22.67075 29601 ft 439 kts 259°
2026-04-24 23:27 60.05709 22.61155 30126 ft 438 kts 259°
2026-04-24 23:27 60.05016 22.55313 30657 ft 436 kts 259°
2026-04-24 23:27 60.04318 22.49439 31181 ft 434 kts 259°
2026-04-24 23:28 60.03618 22.43587 31668 ft 433 kts 259°
2026-04-24 23:28 60.02922 22.37807 32117 ft 432 kts 259°
2026-04-24 23:28 60.02222 22.32015 32556 ft 431 kts 258°
2026-04-24 23:28 60.01515 22.26208 33012 ft 430 kts 258°
2026-04-24 23:29 60.00817 22.20481 33417 ft 430 kts 258°
2026-04-24 23:29 60.00108 22.14693 33790 ft 429 kts 258°
2026-04-24 23:29 59.99400 22.08937 34153 ft 428 kts 259°
2026-04-24 23:29 59.98691 22.03193 34509 ft 427 kts 258°
2026-04-24 23:30 59.97982 21.97476 34798 ft 427 kts 259°
2026-04-24 23:30 59.97277 21.91812 35071 ft 427 kts 259°
2026-04-24 23:30 59.96556 21.86024 35333 ft 427 kts 258°
2026-04-24 23:30 59.95840 21.80314 35585 ft 427 kts 258°
2026-04-24 23:31 59.95127 21.74658 35822 ft 427 kts 259°
2026-04-24 23:31 59.94396 21.68879 36053 ft 428 kts 259°
2026-04-24 23:31 59.93751 21.63143 36249 ft 427 kts 265°
2026-04-24 23:31 59.93689 21.57302 36435 ft 424 kts 278°
2026-04-24 23:32 59.94315 21.51578 36634 ft 423 kts 290°
2026-04-24 23:32 59.95587 21.46333 36838 ft 423 kts 302°
2026-04-24 23:32 59.97160 21.41389 37050 ft 424 kts 300°
2026-04-24 23:32 59.98488 21.36192 37244 ft 425 kts 294°
2026-04-24 23:33 59.99552 21.30665 37432 ft 426 kts 286°
2026-04-24 23:33 60.00147 21.24946 37605 ft 428 kts 280°
2026-04-24 23:33 60.00575 21.19076 37790 ft 429 kts 279°
2026-04-24 23:33 60.00980 21.13147 37970 ft 430 kts 279°
2026-04-24 23:34 60.01383 21.07229 38117 ft 431 kts 279°
2026-04-24 23:34 60.01786 21.01345 38286 ft 433 kts 279°
2026-04-24 23:34 60.02195 20.95396 38415 ft 434 kts 279°
2026-04-24 23:34 60.02606 20.89433 38613 ft 435 kts 279°
2026-04-24 23:35 60.03019 20.83449 38794 ft 437 kts 279°
2026-04-24 23:35 60.03432 20.77438 38967 ft 438 kts 279°
2026-04-24 23:35 60.03841 20.71467 39122 ft 440 kts 279°
2026-04-24 23:35 60.04256 20.65373 39290 ft 441 kts 279°
2026-04-24 23:36 60.04665 20.59317 39426 ft 443 kts 279°
2026-04-24 23:36 60.05070 20.53286 39562 ft 444 kts 279°
2026-04-24 23:36 60.05479 20.47140 39665 ft 446 kts 279°
2026-04-24 23:37 60.06287 20.34868 39689 ft 446 kts 278°
2026-04-24 23:37 60.07477 20.16492 39686 ft 446 kts 278°
2026-04-24 23:38 60.08261 20.04186 39678 ft 447 kts 278°
2026-04-24 23:38 60.09032 19.91885 39688 ft 448 kts 278°
2026-04-24 23:39 60.09791 19.79561 39690 ft 448 kts 278°
2026-04-24 23:39 60.10540 19.67219 39683 ft 448 kts 278°
2026-04-24 23:40 60.11274 19.54928 39679 ft 447 kts 278°
2026-04-24 23:40 60.11997 19.42656 39692 ft 447 kts 278°
2026-04-24 23:41 60.12714 19.30265 39697 ft 447 kts 277°
2026-04-24 23:41 60.13413 19.17979 39691 ft 447 kts 277°
2026-04-24 23:42 60.14102 19.05653 39693 ft 447 kts 277°
2026-04-24 23:42 60.14782 18.93275 39689 ft 448 kts 278°
2026-04-24 23:43 60.15450 18.80907 39697 ft 448 kts 277°
2026-04-24 23:43 60.16106 18.68552 39670 ft 447 kts 278°
2026-04-24 23:44 60.16750 18.56208 39672 ft 447 kts 277°
2026-04-24 23:44 60.17382 18.43873 39681 ft 447 kts 278°
2026-04-24 23:45 60.18000 18.31556 39676 ft 447 kts 277°
2026-04-24 23:45 60.18612 18.19137 39669 ft 447 kts 277°
2026-04-24 23:46 60.19206 18.06839 39677 ft 446 kts 277°
2026-04-24 23:46 60.19790 17.94538 39673 ft 445 kts 277°
2026-04-24 23:47 60.20362 17.82219 39682 ft 445 kts 277°
2026-04-24 23:47 60.20924 17.69875 39687 ft 445 kts 277°
2026-04-24 23:48 60.21475 17.57521 39680 ft 445 kts 277°
2026-04-24 23:48 60.22012 17.45207 39676 ft 445 kts 277°
2026-04-24 23:49 60.22545 17.32717 39690 ft 449 kts 276°
2026-04-24 23:49 60.23064 17.20260 39701 ft 450 kts 276°
2026-04-24 23:50 60.23572 17.07813 39703 ft 450 kts 276°
2026-04-24 23:50 60.24070 16.95309 39702 ft 450 kts 276°
2026-04-24 23:51 60.24554 16.82844 39694 ft 450 kts 276°
2026-04-24 23:51 60.25029 16.70341 39690 ft 450 kts 276°
2026-04-24 23:52 60.25490 16.57861 39680 ft 450 kts 276°
2026-04-24 23:52 60.25941 16.45321 39687 ft 450 kts 276°
2026-04-24 23:53 60.26378 16.32862 39680 ft 449 kts 275°
2026-04-24 23:53 60.26804 16.20374 39687 ft 450 kts 275°
2026-04-24 23:54 60.27221 16.07823 39679 ft 449 kts 275°
2026-04-24 23:54 60.27625 15.95312 39688 ft 449 kts 275°
2026-04-24 23:55 60.28014 15.82834 39686 ft 450 kts 275°
2026-04-24 23:55 60.28395 15.70268 39682 ft 450 kts 275°
2026-04-24 23:56 60.28765 15.57699 39675 ft 450 kts 275°
2026-04-24 23:56 60.29122 15.45162 39677 ft 449 kts 275°
2026-04-24 23:57 60.29464 15.32714 39678 ft 448 kts 274°
2026-04-24 23:57 60.29794 15.20199 39680 ft 447 kts 274°
2026-04-24 23:58 60.30114 15.07747 39678 ft 446 kts 274°
2026-04-24 23:58 60.30419 14.95358 39682 ft 446 kts 274°
2026-04-24 23:59 60.30715 14.82920 39680 ft 447 kts 274°
2026-04-24 23:59 60.31000 14.70424 39675 ft 447 kts 274°
2026-04-25 00:00 60.31271 14.57971 39668 ft 446 kts 274°
2026-04-25 00:00 60.31532 14.45514 39669 ft 447 kts 274°
2026-04-25 00:01 60.31780 14.33054 39665 ft 446 kts 274°
2026-04-25 00:01 60.32016 14.20604 39680 ft 447 kts 274°
2026-04-25 00:02 60.32243 14.08091 39678 ft 447 kts 274°
2026-04-25 00:02 60.32459 13.95599 39684 ft 447 kts 274°
2026-04-25 00:03 60.32660 13.83137 39672 ft 446 kts 273°
2026-04-25 00:03 60.32851 13.70665 39682 ft 446 kts 274°
2026-04-25 00:04 60.33028 13.58254 39683 ft 446 kts 274°
2026-04-25 00:04 60.33195 13.45821 39692 ft 447 kts 274°
2026-04-25 00:05 60.33351 13.33281 39690 ft 447 kts 273°
2026-04-25 00:05 60.33494 13.20804 39691 ft 447 kts 273°
2026-04-25 00:06 60.33626 13.08328 39689 ft 447 kts 273°
2026-04-25 00:06 60.33747 12.95777 39694 ft 447 kts 273°
2026-04-25 00:07 60.33856 12.83292 39693 ft 448 kts 273°
2026-04-25 00:07 60.33953 12.70763 39690 ft 448 kts 273°
2026-04-25 00:08 60.34038 12.58306 39698 ft 448 kts 273°
2026-04-25 00:08 60.34111 12.45742 39669 ft 447 kts 273°
2026-04-25 00:09 60.34174 12.33250 39680 ft 447 kts 272°
2026-04-25 00:09 60.34224 12.20790 39681 ft 447 kts 272°
2026-04-25 00:10 60.34262 12.08302 39688 ft 446 kts 272°
2026-04-25 00:10 60.34289 11.95835 39689 ft 446 kts 272°
2026-04-25 00:11 60.34305 11.83329 39674 ft 446 kts 272°
2026-04-25 00:11 60.34308 11.70889 39693 ft 446 kts 272°
2026-04-25 00:12 60.34301 11.58380 39690 ft 447 kts 272°
2026-04-25 00:12 60.34280 11.45954 39709 ft 447 kts 273°
2026-04-25 00:13 60.34248 11.33402 39712 ft 447 kts 272°
2026-04-25 00:13 60.34202 11.20898 39722 ft 448 kts 272°
2026-04-25 00:14 60.34150 11.08380 39715 ft 447 kts 271°
2026-04-25 00:14 60.34082 10.95905 39727 ft 447 kts 272°
2026-04-25 00:15 60.34000 10.83461 39703 ft 442 kts 272°
2026-04-25 00:15 60.33907 10.71001 39718 ft 447 kts 272°
2026-04-25 00:16 60.33810 10.58530 39700 ft 447 kts 272°
2026-04-25 00:16 60.33699 10.46095 39693 ft 445 kts 272°
2026-04-25 00:17 60.33565 10.33684 39726 ft 445 kts 272°
2026-04-25 00:17 60.33391 10.21226 39712 ft 444 kts 272°
2026-04-25 00:18 60.33212 10.08759 39725 ft 445 kts 273°
2026-04-25 00:18 60.33042 9.96404 39744 ft 445 kts 273°
2026-04-25 00:19 60.32863 9.83948 39747 ft 442 kts 273°
2026-04-25 00:19 60.32774 9.77818 39548 ft 444 kts 273°
2026-04-25 00:19 60.32679 9.71592 38921 ft 446 kts 273°
2026-04-25 00:20 60.32581 9.65360 38393 ft 444 kts 273°
2026-04-25 00:20 60.32483 9.59198 37977 ft 441 kts 273°
2026-04-25 00:20 60.32381 9.53059 37563 ft 439 kts 274°
2026-04-25 00:20 60.32276 9.46943 37113 ft 438 kts 274°
2026-04-25 00:21 60.32170 9.40909 36672 ft 435 kts 274°
2026-04-25 00:21 60.32058 9.34861 36163 ft 429 kts 273°
2026-04-25 00:21 60.31947 9.28860 35497 ft 422 kts 273°
2026-04-25 00:21 60.31836 9.22997 35158 ft 419 kts 273°
2026-04-25 00:22 60.31726 9.17192 34724 ft 418 kts 274°
2026-04-25 00:22 60.31614 9.11392 34252 ft 419 kts 273°
2026-04-25 00:22 60.31502 9.05556 33632 ft 420 kts 273°
2026-04-25 00:22 60.31379 8.99679 33023 ft 420 kts 273°
2026-04-25 00:23 60.31254 8.93826 32429 ft 419 kts 273°
2026-04-25 00:23 60.31134 8.87970 31833 ft 418 kts 273°
2026-04-25 00:23 60.31016 8.82218 31236 ft 417 kts 273°
2026-04-25 00:23 60.30896 8.76353 30610 ft 416 kts 273°
2026-04-25 00:24 60.30774 8.70606 29938 ft 415 kts 273°
2026-04-25 00:24 60.30647 8.64797 29293 ft 414 kts 273°
2026-04-25 00:24 60.30522 8.59099 28647 ft 412 kts 273°
2026-04-25 00:24 60.30398 8.53317 28003 ft 411 kts 273°
2026-04-25 00:25 60.30270 8.47672 27606 ft 403 kts 273°
2026-04-25 00:25 60.30136 8.42071 27221 ft 396 kts 274°
2026-04-25 00:25 60.30006 8.36613 26850 ft 393 kts 274°
2026-04-25 00:25 60.29873 8.31161 26472 ft 390 kts 273°
2026-04-25 00:26 60.29739 8.25740 26084 ft 387 kts 274°
2026-04-25 00:26 60.29602 8.20321 25705 ft 386 kts 272°
2026-04-25 00:26 60.29462 8.15012 25317 ft 384 kts 273°
2026-04-25 00:26 60.29320 8.09662 24940 ft 382 kts 273°
2026-04-25 00:27 60.29169 8.04359 24552 ft 378 kts 273°
2026-04-25 00:27 60.29018 7.99105 24187 ft 375 kts 273°
2026-04-25 00:27 60.28873 7.93916 23790 ft 372 kts 273°
2026-04-25 00:27 60.28735 7.88760 23409 ft 368 kts 274°
2026-04-25 00:28 60.28588 7.83624 23044 ft 368 kts 273°
2026-04-25 00:28 60.28436 7.78517 22678 ft 365 kts 274°
2026-04-25 00:28 60.28280 7.73480 22301 ft 362 kts 274°
2026-04-25 00:28 60.28127 7.68439 21922 ft 358 kts 273°
2026-04-25 00:29 60.27974 7.63522 21555 ft 354 kts 274°
2026-04-25 00:29 60.27818 7.58613 21191 ft 351 kts 273°
2026-04-25 00:29 60.27657 7.53775 20855 ft 347 kts 273°
2026-04-25 00:29 60.27497 7.48976 20469 ft 344 kts 272°
2026-04-25 00:30 60.27340 7.44183 20123 ft 340 kts 273°
2026-04-25 00:30 60.27193 7.39464 19769 ft 337 kts 273°
2026-04-25 00:30 60.27046 7.34771 19414 ft 334 kts 273°
2026-04-25 00:30 60.26901 7.30103 19068 ft 331 kts 272°
2026-04-25 00:31 60.26755 7.25517 18720 ft 329 kts 272°
2026-04-25 00:31 60.26606 7.20954 18367 ft 327 kts 272°
2026-04-25 00:31 60.26450 7.16410 18021 ft 324 kts 272°
2026-04-25 00:31 60.26291 7.11931 17686 ft 323 kts 272°
2026-04-25 00:32 60.26131 7.07443 17367 ft 321 kts 272°
2026-04-25 00:32 60.25970 7.03006 17016 ft 320 kts 272°
2026-04-25 00:32 60.25808 6.98571 16738 ft 315 kts 272°
2026-04-25 00:32 60.25643 6.94257 16641 ft 303 kts 272°
2026-04-25 00:33 60.25486 6.90133 16590 ft 291 kts 273°
2026-04-25 00:33 60.25339 6.86170 16466 ft 282 kts 273°
2026-04-25 00:33 60.25201 6.82314 16380 ft 271 kts 274°
2026-04-25 00:33 60.25065 6.78640 16319 ft 261 kts 274°
2026-04-25 00:34 60.24933 6.75069 16277 ft 251 kts 274°
2026-04-25 00:34 60.24803 6.71640 16209 ft 241 kts 275°
2026-04-25 00:34 60.24677 6.68357 16191 ft 230 kts 274°
2026-04-25 00:34 60.24555 6.65233 16166 ft 220 kts 275°
2026-04-25 00:35 60.24440 6.62226 16137 ft 217 kts 275°
2026-04-25 00:35 60.24324 6.59164 16122 ft 218 kts 275°
2026-04-25 00:35 60.24057 6.56178 16029 ft 230 kts 258°
2026-04-25 00:35 60.23079 6.53415 15676 ft 258 kts 234°
2026-04-25 00:36 60.21430 6.51614 15314 ft 290 kts 205°
2026-04-25 00:36 60.19333 6.51623 15031 ft 316 kts 170°
2026-04-25 00:36 60.17397 6.53735 14825 ft 323 kts 136°
2026-04-25 00:36 60.16206 6.57375 14619 ft 313 kts 103°
2026-04-25 00:37 60.15772 6.61545 14364 ft 304 kts 89°
2026-04-25 00:37 60.15544 6.65832 14054 ft 306 kts 89°
2026-04-25 00:37 60.15263 6.70023 13794 ft 308 kts 91°
2026-04-25 00:37 60.15200 6.74223 13548 ft 288 kts 64°
2026-04-25 00:38 60.16057 6.77472 13274 ft 253 kts 29°
2026-04-25 00:38 60.17490 6.79160 13138 ft 242 kts
2026-04-25 00:38 60.19188 6.79487 13143 ft 248 kts 345°
2026-04-25 00:38 60.20795 6.78399 13152 ft 244 kts 324°
2026-04-25 00:39 60.21953 6.75997 13228 ft 244 kts 302°
2026-04-25 00:39 60.22526 6.72766 13363 ft 250 kts 289°
2026-04-25 00:39 60.22983 6.69390 13504 ft 248 kts 290°
2026-04-25 00:39 60.23405 6.66186 13393 ft 244 kts 290°
2026-04-25 00:40 60.23797 6.62889 13324 ft 242 kts 289°
2026-04-25 00:40 60.24160 6.59616 13188 ft 236 kts 289°
2026-04-25 00:40 60.24482 6.56428 13000 ft 242 kts 286°
2026-04-25 00:40 60.24734 6.52769 12634 ft 285 kts 281°
2026-04-25 00:41 60.24835 6.48695 12207 ft 299 kts 277°
2026-04-25 00:41 60.24748 6.44481 11809 ft 302 kts 272°
2026-04-25 00:41 60.24478 6.40291 11413 ft 306 kts 268°
2026-04-25 00:41 60.24055 6.36124 11014 ft 306 kts 266°
2026-04-25 00:42 60.23689 6.31916 10622 ft 304 kts 269°
2026-04-25 00:42 60.23486 6.27731 10312 ft 297 kts 272°
2026-04-25 00:42 60.23345 6.23677 10223 ft 286 kts 272°
2026-04-25 00:42 60.23214 6.19769 10177 ft 275 kts 272°
2026-04-25 00:43 60.23093 6.16012 10106 ft 265 kts 273°
2026-04-25 00:43 60.22976 6.12363 10062 ft 254 kts 273°
2026-04-25 00:43 60.22870 6.08934 10041 ft 243 kts 273°
2026-04-25 00:43 60.22765 6.05579 10004 ft 235 kts 274°
2026-04-25 00:44 60.22668 6.02277 9810 ft 236 kts 274°
2026-04-25 00:44 60.22566 5.99002 9543 ft 236 kts 274°
2026-04-25 00:44 60.22460 5.95705 9289 ft 236 kts 273°
2026-04-25 00:44 60.22353 5.92416 9025 ft 236 kts 272°
2026-04-25 00:45 60.22251 5.89145 8767 ft 235 kts 272°
2026-04-25 00:45 60.22027 5.85852 8513 ft 239 kts 262°
2026-04-25 00:45 60.21450 5.82687 8267 ft 245 kts 250°
2026-04-25 00:45 60.20636 5.79709 8033 ft 246 kts 248°
2026-04-25 00:46 60.19789 5.76802 8020 ft 236 kts 247°
2026-04-25 00:46 60.18944 5.74048 8000 ft 230 kts 239°
2026-04-25 00:46 60.15872 5.71807 7955 ft 270 kts 171°
2026-04-25 00:47 60.14079 5.73007 7980 ft 274 kts 161°
2026-04-25 00:47 60.12268 5.74191 7976 ft 271 kts 174°
2026-04-25 00:47 60.10430 5.74552 7976 ft 267 kts 184°
2026-04-25 00:47 60.08557 5.74591 7979 ft 268 kts 186°
2026-04-25 00:48 60.06721 5.74355 7974 ft 263 kts 197°
2026-04-25 00:48 60.04992 5.73412 7972 ft 257 kts 207°
2026-04-25 00:48 60.03303 5.72166 7978 ft 257 kts 208°
2026-04-25 00:48 60.01674 5.70819 7902 ft 254 kts 216°
2026-04-25 00:49 60.00213 5.68903 7625 ft 249 kts 226°
2026-04-25 00:49 59.98890 5.66691 7371 ft 248 kts 228°
2026-04-25 00:49 59.97586 5.64427 7122 ft 248 kts 231°
2026-04-25 00:49 59.96500 5.61853 6868 ft 241 kts 244°
2026-04-25 00:50 59.95673 5.58993 6629 ft 239 kts 248°
2026-04-25 00:50 59.94988 5.55991 6353 ft 232 kts 266°
2026-04-25 00:50 59.95125 5.52939 6090 ft 219 kts 297°
2026-04-25 00:50 59.96013 5.50569 5868 ft 213 kts 324°
2026-04-25 00:51 59.97323 5.49340 5671 ft 209 kts 341°
2026-04-25 00:51 59.98695 5.48486 5462 ft 207 kts 341°
2026-04-25 00:51 60.00069 5.47635 5232 ft 205 kts 341°
2026-04-25 00:51 60.01432 5.46793 5006 ft 204 kts 341°
2026-04-25 00:52 60.02764 5.45971 4796 ft 202 kts 341°
2026-04-25 00:52 60.04093 5.45147 4589 ft 200 kts 341°
2026-04-25 00:52 60.05415 5.44322 4377 ft 198 kts 341°
2026-04-25 00:52 60.06720 5.43504 4172 ft 197 kts 341°
2026-04-25 00:53 60.08029 5.42682 3992 ft 194 kts 341°
2026-04-25 00:53 60.09166 5.41477 3942 ft 183 kts 314°
2026-04-25 00:53 60.09792 5.39335 3837 ft 180 kts 288°
2026-04-25 00:53 60.10033 5.36923 3681 ft 176 kts 285°
2026-04-25 00:54 60.10249 5.34538 3510 ft 172 kts 284°
2026-04-25 00:54 60.10453 5.32259 3473 ft 160 kts 284°
2026-04-25 00:54 60.10657 5.30134 3454 ft 148 kts 293°
2026-04-25 00:54 60.11266 5.28597 3491 ft 145 kts 328°
2026-04-25 00:55 60.12197 5.27775 3465 ft 148 kts 341°
2026-04-25 00:55 60.13197 5.27266 3282 ft 147 kts 345°
2026-04-25 00:55 60.14199 5.26885 3080 ft 147 kts 347°
2026-04-25 00:55 60.15195 5.26549 2877 ft 147 kts 347°
2026-04-25 00:56 60.16210 5.26219 2661 ft 148 kts 347°
2026-04-25 00:56 60.17213 5.25895 2446 ft 148 kts 347°
2026-04-25 00:56 60.18229 5.25558 2240 ft 146 kts 346°
2026-04-25 00:56 60.19215 5.25220 2012 ft 140 kts 348°
2026-04-25 00:57 60.20154 5.24898 1805 ft 133 kts 346°
2026-04-25 00:57 60.21052 5.24599 1609 ft 126 kts 346°
2026-04-25 00:57 60.21914 5.24319 1437 ft 126 kts 346°
2026-04-25 00:57 60.22778 5.24040 1285 ft 126 kts 348°
2026-04-25 00:58 60.23641 5.23758 1115 ft 126 kts 347°
2026-04-25 00:58 60.24524 5.23443 946 ft 129 kts 345°
2026-04-25 00:58 60.25402 5.23129 772 ft 129 kts 348°
2026-04-25 00:58 60.26286 5.22817 617 ft 131 kts 349°
2026-04-25 00:59 60.27190 5.22529 371 ft 131 kts 346°
2026-04-25 00:59 60.28084 5.22232 187 ft 133 kts 347°
2026-04-25 00:59 60.29015 5.21927 321 ft 140 kts 346°
2026-04-25 00:59 60.29768 5.21654 1576 ft 84 kts 344°
2026-04-25 01:00 60.30106 5.21386 1387 ft 117 kts 329°
2026-04-25 01:00 60.31022 5.20172 1215 ft 178 kts 349°
2026-04-25 01:00 60.32026 5.19993 2463 ft 132 kts 342°
2026-04-25 01:00 60.32882 5.19401 2925 ft 135 kts 342°
2026-04-25 01:01 60.33866 5.19368 3099 ft 156 kts 359°
2026-04-25 01:01 60.35050 5.19528 3186 ft 177 kts
2026-04-25 01:01 60.36295 5.19739 3261 ft 181 kts 358°
2026-04-25 01:01 60.37624 5.19696 3227 ft 201 kts 356°
2026-04-25 01:02 60.39032 5.19535 3270 ft 206 kts 347°
2026-04-25 01:02 60.40406 5.18832 3183 ft 202 kts 342°
2026-04-25 01:02 60.41787 5.18050 2227 ft 233 kts 339°
2026-04-25 01:02 60.43304 5.16921 2209 ft 215 kts 341°
2026-04-25 01:03 60.44694 5.16184 2443 ft 204 kts 347°
2026-04-25 01:03 60.46093 5.15740 2222 ft 221 kts 349°
2026-04-25 01:03 60.47622 5.15351 2002 ft 216 kts 353°
2026-04-25 01:03 60.49043 5.15209 2233 ft 201 kts 348°
2026-04-25 01:04 60.50286 5.14063 2282 ft 202 kts 313°
2026-04-25 01:04 60.50810 5.11466 2316 ft 209 kts 271°
2026-04-25 01:04 60.50299 5.08678 2553 ft 223 kts 234°
2026-04-25 01:04 60.48963 5.06996 2869 ft 236 kts 196°
2026-04-25 01:05 60.47307 5.07135 3135 ft 245 kts 171°
2026-04-25 01:05 60.45635 5.07590 3312 ft 246 kts 176°
2026-04-25 01:05 60.43938 5.08126 3270 ft 247 kts 172°
2026-04-25 01:05 60.42236 5.08654 3075 ft 247 kts 174°
2026-04-25 01:06 60.40542 5.09212 2812 ft 250 kts 173°
2026-04-25 01:06 60.38811 5.09813 2629 ft 249 kts 173°
2026-04-25 01:06 60.37141 5.10375 2539 ft 243 kts 173°
2026-04-25 01:06 60.35493 5.10913 2725 ft 240 kts 174°
2026-04-25 01:07 60.33850 5.11434 2933 ft 244 kts 173°
2026-04-25 01:07 60.32172 5.11948 2962 ft 244 kts 174°
2026-04-25 01:07 60.30471 5.12426 2999 ft 245 kts 175°
2026-04-25 01:07 60.28799 5.12878 3017 ft 245 kts 175°
2026-04-25 01:08 60.27112 5.13320 3002 ft 245 kts 175°
2026-04-25 01:08 60.25433 5.13772 3010 ft 245 kts 175°
2026-04-25 01:08 60.23759 5.14259 2995 ft 244 kts 174°
2026-04-25 01:08 60.22084 5.14806 2978 ft 244 kts 173°
2026-04-25 01:09 60.20421 5.15381 2913 ft 239 kts 169°
2026-04-25 01:09 60.18911 5.16636 2751 ft 239 kts 144°
2026-04-25 01:09 60.17800 5.19043 2468 ft 239 kts 114°
2026-04-25 01:09 60.17366 5.22314 1923 ft 244 kts 84°
2026-04-25 01:10 60.17927 5.25203 1973 ft 211 kts 38°
2026-04-25 01:10 60.19133 5.26474 1966 ft 191 kts
2026-04-25 01:10 60.20403 5.26060 1725 ft 186 kts 332°
2026-04-25 01:10 60.21493 5.24915 1640 ft 174 kts 337°
2026-04-25 01:11 60.22624 5.24195 1440 ft 166 kts 345°
2026-04-25 01:11 60.23729 5.23696 1197 ft 160 kts 346°
2026-04-25 01:11 60.24784 5.23320 1022 ft 150 kts 346°
2026-04-25 01:11 60.25780 5.22986 791 ft 144 kts 347°
2026-04-25 01:12 60.26746 5.22667 555 ft 139 kts 346°
2026-04-25 01:12 60.27700 5.22351 312 ft 138 kts 347°
2026-04-25 01:12 60.28626 5.22044 178 ft 129 kts 340°
2026-04-25 01:12 60.29431 5.21769 629 ft 120 kts 348°
2026-04-25 01:13 60.30227 5.21543 1322 ft 120 kts 345°
2026-04-25 01:13 60.30933 5.21253 2277 ft 98 kts 342°
2026-04-25 01:13 60.31624 5.20885 2773 ft 111 kts 342°
2026-04-25 01:13 60.32510 5.20639 2976 ft 148 kts 349°
2026-04-25 01:14 60.33606 5.20357 3213 ft 167 kts 349°
2026-04-25 01:14 60.34750 5.19946 3653 ft 167 kts 338°